Weather History for Corning, AR

Change the Weather History Date:

Monday, April 8, 2013

  Actual Average (KARG) Record (KARG)
Temperature  
Mean Temperature 67 °F -  
Max Temperature 75 °F 65 °F 82 °F (2001)
Min Temperature 59 °F 46 °F 26 °F (2007)
Cooling Degree Days 2    
Growing Degree Days 17 (Base 50)    
Moisture  
Dew Point 56 °F    
Average Humidity 68    
Maximum Humidity 82    
Minimum Humidity 53    
Precipitation  
Precipitation 0.00 in - - ()
Sea Level Pressure  
Sea Level Pressure 29.87 in    
Wind  
Wind Speed 14 mph (South)    
Max Wind Speed 32 mph    
Max Gust Speed 39 mph    
Visibility 10 miles    
Events      
Averages and records for this station are not official NWS values.
T = Trace of Precipitation, MM = Missing Value Source: NWS Daily Summary

Daily Weather History Graph

Daily Weather History Graph

Search for Another Location

Airport:

Trip Planner

Search our weather history database for the weather conditions in past years. The results will help you decide how hot, cold, wet, or windy it might be!

Date:

Astronomy

Apr. 08, 2013 Rise Set
Actual Time 6:38 AM CDT 7:30 PM CDT
Civil Twilight 6:12 AM CDT 7:57 PM CDT
Nautical Twilight 5:41 AM CDT 8:28 PM CDT
Astronomical Twilight 5:09 AM CDT 9:00 PM CDT
Moon 5:26 AM CDT (4/8) 6:07 PM CDT (4/8)
Length of Visible Light 13h 45m
Length of Day
12h 52m
Waning Crescent, 3% of the Moon is Illuminated
Apr 8
Waning Crescent
Apr 10
New
Apr 18
First Quarter
Apr 25
Full
May 2
Last Quarter

Hourly Weather History & Observations

Time (CDT) Temp. Dew Point Humidity Pressure Visibility Wind Dir Wind Speed Gust Speed Precip Events Conditions
12:15 AM 59.0 °F 53.6 °F 82% 29.90 in 10.0 mi SE 9.2 mph - N/A   Overcast
12:55 AM 60.8 °F 53.6 °F 77% 29.90 in 10.0 mi SE 9.2 mph - N/A   Overcast
1:15 AM 60.8 °F 53.6 °F 77% 29.90 in 10.0 mi SE 5.8 mph - N/A   Overcast
1:35 AM 60.8 °F 53.6 °F 77% 29.89 in 10.0 mi SE 8.1 mph - N/A   Overcast
1:55 AM 60.8 °F 53.6 °F 77% 29.88 in 10.0 mi SE 9.2 mph - N/A   Overcast
2:35 AM 60.8 °F 53.6 °F 77% 29.85 in 10.0 mi SE 10.4 mph - N/A   Overcast
2:55 AM 60.8 °F 53.6 °F 77% 29.85 in 10.0 mi SSE 6.9 mph - N/A   Overcast
3:15 AM 62.6 °F 53.6 °F 72% 29.85 in 10.0 mi SSE 9.2 mph - N/A   Overcast
3:55 AM 64.4 °F 53.6 °F 68% 29.84 in 10.0 mi South 17.3 mph - N/A   Overcast
4:15 AM 64.4 °F 53.6 °F 68% 29.84 in 10.0 mi South 19.6 mph - N/A   Overcast
4:55 AM 64.4 °F 53.6 °F 68% 29.84 in 10.0 mi South 16.1 mph - N/A   Overcast
5:15 AM 62.6 °F 53.6 °F 72% 29.84 in 10.0 mi South 16.1 mph - N/A   Overcast
5:35 AM 62.6 °F 55.4 °F 77% 29.85 in 10.0 mi South 15.0 mph - N/A   Overcast
5:55 AM 62.6 °F 55.4 °F 77% 29.87 in 10.0 mi South 13.8 mph 18.4 mph N/A   Overcast
6:35 AM 62.6 °F 55.4 °F 77% 29.89 in 10.0 mi South 15.0 mph - N/A   Mostly Cloudy
6:55 AM 62.6 °F 55.4 °F 77% 29.89 in 10.0 mi South 13.8 mph - N/A   Scattered Clouds
7:15 AM 64.4 °F 57.2 °F 77% 29.90 in 10.0 mi South 13.8 mph 17.3 mph N/A   Mostly Cloudy
7:35 AM 64.4 °F 57.2 °F 77% 29.89 in 10.0 mi South 15.0 mph - N/A   Scattered Clouds
7:55 AM 64.4 °F 57.2 °F 77% 29.90 in 9.0 mi South 15.0 mph - N/A   Clear
8:15 AM 64.4 °F 57.2 °F 77% 29.91 in 10.0 mi South 17.3 mph 23.0 mph N/A   Partly Cloudy
8:35 AM 64.4 °F 57.2 °F 77% 29.90 in 10.0 mi South 16.1 mph 20.7 mph N/A   Partly Cloudy
8:55 AM 64.4 °F 57.2 °F 77% 29.90 in 9.0 mi South 13.8 mph 20.7 mph N/A   Clear
9:15 AM 66.2 °F 57.2 °F 73% 29.90 in 10.0 mi South 18.4 mph 24.2 mph N/A   Clear
9:35 AM 66.2 °F 57.2 °F 73% 29.90 in 10.0 mi SSW 16.1 mph 25.3 mph N/A   Clear
9:55 AM 68.0 °F 57.2 °F 68% 29.90 in 10.0 mi South 19.6 mph 25.3 mph N/A   Clear
10:15 AM 69.8 °F 57.2 °F 64% 29.89 in 10.0 mi SSW 21.9 mph 29.9 mph N/A   Clear
10:55 AM 71.6 °F 57.2 °F 60% 29.88 in 10.0 mi South 32.2 mph 36.8 mph N/A   Clear
11:15 AM 73.4 °F 57.2 °F 57% 29.87 in 9.0 mi South 26.5 mph 34.5 mph N/A   Clear
11:35 AM 73.4 °F 57.2 °F 57% 29.87 in 9.0 mi SSW 26.5 mph 36.8 mph N/A   Clear
11:55 AM 73.4 °F 57.2 °F 57% 29.87 in 9.0 mi SSW 26.5 mph 39.1 mph N/A   Clear
12:15 PM 75.2 °F 57.2 °F 53% 29.87 in 10.0 mi SSW 24.2 mph 33.4 mph N/A   Clear
12:35 PM 73.4 °F 55.4 °F 53% 29.88 in 9.0 mi SSW 27.6 mph 32.2 mph N/A   Partly Cloudy
12:55 PM 73.4 °F 57.2 °F 57% 29.87 in 10.0 mi SSW 25.3 mph 32.2 mph N/A   Partly Cloudy
1:15 PM 73.4 °F 57.2 °F 57% 29.87 in 8.0 mi SSW 24.2 mph 32.2 mph N/A   Partly Cloudy
1:35 PM 75.2 °F 57.2 °F 53% 29.87 in 10.0 mi SSW 25.3 mph 31.1 mph N/A   Clear
1:55 PM 75.2 °F 57.2 °F 53% 29.87 in 10.0 mi South 23.0 mph 28.8 mph N/A   Clear
2:15 PM 75.2 °F 57.2 °F 53% 29.87 in 10.0 mi SSW 23.0 mph 31.1 mph N/A   Partly Cloudy
2:35 PM 75.2 °F 57.2 °F 53% 29.86 in 10.0 mi South 20.7 mph 26.5 mph N/A   Partly Cloudy
2:55 PM 75.2 °F 57.2 °F 53% 29.85 in 10.0 mi SSW 23.0 mph 27.6 mph N/A   Clear
3:15 PM 75.2 °F 57.2 °F 53% 29.85 in 10.0 mi SSW 24.2 mph 29.9 mph N/A   Partly Cloudy
3:35 PM 75.2 °F 57.2 °F 53% 29.85 in 10.0 mi SSW 20.7 mph 31.1 mph N/A   Partly Cloudy
3:55 PM 73.4 °F 57.2 °F 57% 29.85 in 9.0 mi South 17.3 mph 24.2 mph N/A   Partly Cloudy
4:15 PM 73.4 °F 57.2 °F 57% 29.85 in 9.0 mi South 17.3 mph 28.8 mph N/A   Scattered Clouds
4:35 PM 71.6 °F 57.2 °F 60% 29.85 in 10.0 mi South 20.7 mph 27.6 mph N/A   Overcast
4:55 PM 71.6 °F 57.2 °F 60% 29.85 in 10.0 mi South 20.7 mph 26.5 mph N/A   Overcast
5:15 PM 71.6 °F 57.2 °F 60% 29.85 in 10.0 mi SSW 17.3 mph 23.0 mph N/A   Overcast
5:35 PM 71.6 °F 57.2 °F 60% 29.85 in 10.0 mi South 12.7 mph 18.4 mph N/A   Overcast
5:55 PM 71.6 °F 57.2 °F 60% 29.85 in 8.0 mi South 10.4 mph - N/A   Overcast
6:15 PM 71.6 °F 57.2 °F 60% 29.85 in 6.0 mi South 10.4 mph - N/A   Haze
6:55 PM 71.6 °F 59.0 °F 64% 29.86 in 7.0 mi South 9.2 mph - N/A   Scattered Clouds
7:15 PM 71.6 °F 59.0 °F 64% 29.86 in 8.0 mi South 8.1 mph - N/A   Mostly Cloudy
7:35 PM 69.8 °F 59.0 °F 68% 29.86 in 9.0 mi South 8.1 mph - N/A   Mostly Cloudy
7:55 PM 69.8 °F 57.2 °F 64% 29.86 in 10.0 mi South 8.1 mph - N/A   Overcast
8:15 PM 68.0 °F 57.2 °F 68% 29.87 in 10.0 mi SSE 9.2 mph - N/A   Mostly Cloudy
8:55 PM 66.2 °F 57.2 °F 73% 29.88 in 10.0 mi SSE 8.1 mph - N/A   Clear
9:15 PM 66.2 °F 57.2 °F 73% 29.89 in 10.0 mi SE 8.1 mph - N/A   Clear
9:35 PM 64.4 °F 57.2 °F 77% 29.89 in 10.0 mi SE 9.2 mph - N/A   Clear
9:55 PM 64.4 °F 57.2 °F 77% 29.89 in 10.0 mi SSE 8.1 mph - N/A   Clear
10:15 PM 62.6 °F 57.2 °F 82% 29.89 in 10.0 mi SE 6.9 mph - N/A   Clear
10:35 PM 62.6 °F 57.2 °F 82% 29.88 in 10.0 mi SE 10.4 mph - N/A   Clear
10:55 PM 64.4 °F 57.2 °F 77% 29.88 in 10.0 mi SE 10.4 mph - N/A   Clear
11:15 PM 64.4 °F 57.2 °F 77% 29.88 in 10.0 mi SE 10.4 mph - N/A   Clear
11:35 PM 62.6 °F 57.2 °F 82% 29.88 in 10.0 mi SE 9.2 mph - N/A   Clear
11:55 PM 62.6 °F 55.4 °F 77% 29.87 in 10.0 mi SE 10.4 mph - N/A   Clear